Overview Statistics Trail Chart Weather Telemetry Raw packets
 

This is the latest recevied weather packets stored in our database for station/object KE6YLF. If no packets are shown the sender has not sent any weather packets the latest 10 day(s).

<< 98 99 100 101 102 103 104 >>
Time Temp. Humidity Pressure Rain* Wind** Luminosity Snow
1787954826 40.56° C 28% 1074.6 hPa 0 mm - - -
1787954522 40.56° C 28% 1074.6 hPa 0 mm - - -
1787954221 40.56° C 28% 1074.9 hPa 0 mm - - -
1787953916 41.67° C 27% 1075 hPa 0 mm - - -
1787953614 41.67° C 27% 1075.3 hPa 0 mm - - -
1787953309 42.22° C 27% 1075.4 hPa 0 mm - - -
1787953008 43.89° C 26% 1075.4 hPa 0 mm - - -
1787952701 42.78° C 26% 1075.5 hPa 0 mm - - -
1787952396 40.56° C 28% 1075.8 hPa 0 mm - - -
1787952093 41.11° C 27% 1075.9 hPa 0 mm - - -
1787951791 41.67° C 27% 1076 hPa 0 mm - - -
1787951487 41.11° C 27% 1075.8 hPa 0 mm - - -
1787951184 42.22° C 27% 1076 hPa 0 mm - - -
1787950879 40.56° C 29% 1076.1 hPa 0 mm - - -
1787950575 41.11° C 28% 1076.2 hPa 0 mm - - -
1787950270 40.56° C 29% 1076.3 hPa 0 mm - - -
1787949967 41.67° C 28% 1076.3 hPa 0 mm - - -
1787949667 41.67° C 29% 1076.4 hPa 0 mm - - -
1787949361 41.11° C 29% 1076.4 hPa 0 mm - - -
1787949056 40.56° C 29% 1076.5 hPa 0 mm - - -
1787948752 40.56° C 29% 1076.6 hPa 0 mm - - -
1787948446 40.56° C 30% 1076.9 hPa 0 mm - - -
1787948142 40.56° C 30% 1076.9 hPa 0 mm - - -
1787947841 40.56° C 30% 1077 hPa 0 mm - - -
1787947539 40° C 31% 1077.1 hPa 0 mm - - -

* Rain latest hour (hover to see other rain measurements)
** Current wind speed in m/s (hover to see current wind gust speed)